User: anonymous   Login
Location: Unspecified
(0.0000°N, 0.0000°E)
Time: 06:53:47
(UTC+00:00)
Language:

NOSS 2-3 (E) - Orbit

View from above orbital plane
View from above orbital plane
View from above satellite
View from above satellite

Ground track
Ground track

The orbit data is extracted from the following two-line orbital elements,

1 23936U 96029E   17154.89802168 0.00000000  00000-0  00000-0 0    02
2 23936  63.3740  87.6419 0605000  12.4171 347.5829 13.40869656    06
Epoch (UTC): 03 June 2017 21:33:09
Eccentricity: 0.0605000
inclination: 63.3740°
perigee height: 653 km
apogee height: 1559 km
right ascension of ascending node: 87.6419°
argument of perigee: 12.4171°
revolutions per day: 13.40869656
mean anomaly at epoch: 347.5829°
orbit number at epoch: 0

The dashed part of the orbit path shows where the satellite is in the earth's shadow,  

DLR